2020-014A (45249 NORAD) Tracking and Keplerian Element Data

This shows tracking and keplerian element data for the satellite.

Feedback or suggestion? Click here.




ElementValue
Catalog45249
Name2020-014A
Epoch Orbit565
Epoch Day87.75572498
Epoch Year2020
RAAN207.2162
Inclination35.0072
Eccentricity0.0006203
Argument of Perigee263.5972
Mean Anonmoly96.4039
Mean Motion15.28897007
Decay Rate1.605E-05
L11 45249U 20014A 20087.75572498 .00001605 00000-0 57095-4 0 9997
L22 45249 35.0072 207.2162 0006203 263.5972 96.4039 15.28897007 5652

Live tracking and technical data element details for 2020-014A (NORAD 45249). 2020-014A can be tracked NOW for your location showing map with azimuth and elevation plus other details from your city location.

Track the satellite on the map from your city or location and see movement details for azimuth, elevation, latitude, longitude, range, height, and movement on the map or in text.







IsCatalogInMostPopularTable: catalog: 45249, numindb: 10
Update: records affected: 1



GetName: 45249 2020-014A

Hit Count: updated at: Tue, 31 Mar 2020 13:00:07 GMT